Flag for China Weather past 2 weeks in Langfang, Hebei, China

Now
73 °F

Sunny.


Feels Like: 74 °F
Forecast: 65 / 75 °F
Wind: 1 mph from North

Location: Beijing Airport

Current Time: Aug 31, 2015 at 5:16:51 PM

Latest Report: Aug 31, 2015 at 4:30 PM


Visibility: 10 mi

Pressure: 29.89 "Hg

Humidity: 78%

Dew point: 66 °F

Location of LangfangLocation

Historic Weather in Langfang — Graph

°F

Langfang temperature yesterday

Maximum temperature yesterday: 73 °F (at 3:00 PM)
Minimum temperature yesterday: 68 °F (at 9:00 PM)
Average temperature yesterday: 71 °F

Past Weeks' High & Low Weather Summary

 TemperatureHumidityPressure
High95 °F (Aug 16, 4:00 PM)100% (Aug 19, 6:30 AM)29.92 "Hg (Aug 19, 6:30 AM)
Low64 °F (Aug 21, 4:00 AM)24% (Aug 20, 5:00 PM)29.62 "Hg (Aug 16, 4:00 PM)
Average77 °F68%29.79 "Hg
* Reported Aug 16 4:00 PM — Aug 31 4:00 PM, Langfang, Weather by CustomWeather, © 2015

Note: Actual official high and low records may vary slightly from our data, if they occured in-between our weather recording intervals... More about our weather records

Advertising

Langfang weather history for previous 24 hours

 ConditionsComfort  
Time TempWeatherWind HumidityBarometerVisibility
4:00 PM
Mon, Aug 31
73 °FSunny.1 mph78%29.89 "Hg10 mi
3:30 PM73 °FPassing clouds.3 mph74%29.89 "HgN/A
3:00 PM72 °FSunny.3 mph78%29.89 "Hg10 mi
2:30 PM72 °FSprinkles. Clear.3 mph78%29.89 "HgN/A
2:00 PM70 °FSprinkles. Clear.3 mph88%29.92 "HgN/A
1:30 PM68 °FSprinkles. Clear.3 mph94%29.92 "HgN/A
1:00 PM68 °FSprinkles. Clear.1 mph94%29.92 "HgN/A
12:30 PM68 °FSprinkles. Clear.3 mph94%29.92 "HgN/A
12:00 PM68 °FSprinkles. Passing clouds.3 mph94%29.92 "HgN/A
11:30 AM70 °FSprinkles. Passing clouds.1 mph88%29.92 "HgN/A
11:00 AM72 °FPassing clouds.3 mph83%29.92 "HgN/A
10:30 AM73 °FPassing clouds.3 mph78%29.92 "HgN/A
10:00 AM72 °FSunny.6 mph88%29.92 "Hg10 mi
9:30 AM70 °FSprinkles. Clear.3 mph94%29.92 "HgN/A
9:00 AM70 °FSprinkles. Clear.1 mph88%29.92 "HgN/A
8:30 AM70 °FSprinkles. Clear.3 mph88%29.92 "HgN/A
8:00 AM70 °FSprinkles. Clear.3 mph88%29.92 "HgN/A
7:30 AM68 °FSprinkles. Clear.3 mph100%29.92 "Hg5 mi
7:00 AM68 °FSprinkles. Clear.1 mph94%29.92 "Hg5 mi
6:30 AM68 °FSprinkles. Clear.3 mph94%29.89 "Hg5 mi
6:00 AM68 °FSprinkles. Clear.3 mph94%29.89 "Hg4 mi
5:30 AM68 °FSprinkles. Clear.3 mph94%29.89 "Hg4 mi
5:00 AM68 °FSprinkles. Clear.3 mph94%29.89 "Hg4 mi
4:30 AM68 °FSprinkles. Clear.3 mph94%29.89 "Hg4 mi
3:30 AM70 °FSprinkles. Clear.3 mph88%29.89 "Hg5 mi
3:00 AM72 °FClear.3 mph83%29.89 "Hg5 mi
2:30 AM72 °FClear.6 mph83%29.89 "Hg10 mi
2:00 AM72 °FClear.6 mph83%29.92 "Hg10 mi
1:30 AM72 °FSprinkles. Clear.6 mph83%29.89 "HgN/A
1:00 AM72 °FPassing clouds.6 mph83%29.92 "HgN/A
12:30 AM72 °FPassing clouds.3 mph78%29.92 "HgN/A
12:00 AM72 °FClear.3 mph83%29.92 "Hg10 mi
11:30 PM
Sun, Aug 30
72 °FClear.3 mph78%29.92 "Hg10 mi
11:00 PM70 °FPassing clouds.3 mph88%29.89 "HgN/A
10:30 PM70 °FClear.1 mph83%29.89 "Hg10 mi
10:00 PM68 °FClear.3 mph88%29.89 "Hg10 mi
9:30 PM68 °FClear.1 mph88%29.89 "Hg10 mi
9:00 PM68 °FClear.1 mph88%29.89 "Hg10 mi
8:30 PM70 °FClear.1 mph88%29.89 "Hg10 mi
8:00 PM70 °FClear.1 mph83%29.89 "Hg10 mi
7:30 PM70 °FClear.1 mph83%29.89 "Hg10 mi
7:00 PM70 °FPassing clouds.3 mph83%29.86 "HgN/A
6:30 PM72 °FSunny.1 mph78%29.86 "Hg10 mi
6:00 PM72 °FSunny.1 mph78%29.86 "Hg10 mi
5:30 PM72 °FPassing clouds.3 mph78%29.86 "HgN/A
5:00 PM72 °FSunny.3 mph78%29.86 "Hg10 mi
Weather by CustomWeather, © 2015

See weather overviewHow to use our weather pages